Location: Wildlife_Club
(35.6000°N, 81.4330°W)
Time: 09:39:57
(UTC-04:00)

Daily predictions for brighter satellites

Satellite Brightness Start Highest point End
(mag) Time Altitude Azimuth Time Altitude Azimuth Time Altitude Azimuth
Cosmos 2227 4.2 20:21:22 10° NNW 20:27:03 82° ENE 20:32:43 10° SSE
Cosmos 1954 Rocket 4.1 20:23:00 10° NNW 20:28:20 77° ENE 20:33:39 10° SSE
Cosmos 1975 Rocket 3.4 20:23:59 10° N 20:28:26 74° W 20:32:48 10° S
ALOS 3.0 20:25:06 10° S 20:29:41 59° W 20:34:18 10° NNW
USA 267 3.6 20:24:51 10° ESE 20:31:14 56° NE 20:37:37 10° NW
Cosmos 1812 4.3 20:27:45 10° NNW 20:31:24 41° W 20:35:02 10° SSW
NOSS 2-3 (D) 3.8 20:27:08 10° SSW 20:31:41 77° ESE 20:36:50 10° NE
FENGYUN 3A 4.2 20:26:36 10° S 20:31:55 65° WSW 20:37:15 10° NNW
Cosmos 1553 Rocket 4.2 20:28:02 10° N 20:33:59 51° E 20:39:51 10° SSE
S3M 4.3 20:28:01 10° N 20:34:05 48° E 20:40:11 10° SSE
Resurs 01 Rocket 2.0 20:36:50 10° SE 20:41:03 44° ENE 20:45:17 10° N
Cosmos 2151 Rocket 3.5 20:37:26 10° S 20:41:48 73° E 20:46:11 10° N
Envisat 3.7 20:40:54 10° SE 20:45:28 35° ENE 20:50:03 10° N
DELTA 2 R/B (1) 4.3 20:40:59 10° WNW 20:46:22 47° SSW 20:51:42 10° SE
Cosmos 1602 3.8 20:42:58 10° S 20:46:47 79° W 20:50:38 10° N
GENESIS II 4.2 20:42:53 10° NNW 20:46:48 85° WSW 20:50:40 10° SSE
Abrixas 2.9 20:44:36 10° SSW 20:46:56 30° SE 20:49:11 11° ENE
Cosmos 2263 Rocket 2.7 20:41:36 10° N 20:47:01 43° ENE 20:52:21 10° SE
Cosmos 1741 Rocket 4.2 20:44:51 10° N 20:49:58 52° ENE 20:55:05 10° SE
Cosmos 2322 Rocket 2.6 20:45:33 10° SSW 20:51:13 72° WNW 20:56:56 10° NNE
Lacrosse 5 2.2 20:47:19 10° SW 20:52:22 71° NW 20:57:27 10° NE
Cosmos 1536 Rocket 3.6 20:48:31 10° N 20:52:48 58° E 20:57:05 10° SSE
Atlas Centaur 2 3.5 20:47:46 10° W 20:55:59 52° SSW 21:02:23 15° ESE
ATLAS 2AS CENTAUR R/B 3.0 20:50:08 10° SSW 20:57:41 84° ESE 21:05:49 10° NNE
SL-16 R/B 3.1 20:59:23 10° SW 21:04:54 54° WNW 21:10:28 10° NNE
Cosmos 2219 Rocket 4.1 21:08:26 11° ENE 21:08:26 11° ENE 21:09:03 10° ENE
Helios 1B rocket 3.6 21:03:55 10° NE 21:07:10 22° E 21:08:10 20° ESE
Centaur AC-116 4.4 21:05:28 10° WSW 21:11:04 21° S 21:12:37 17° SSE
Meteor 1-11 Rocket 4.1 21:06:35 10° SSW 21:12:25 73° W 21:18:08 10° N
FALCON 9 R/B 4.1 21:09:03 10° SSE 21:19:39 - E 21:10:18 14° SE
Cosmos 1110 Rocket 3.9 21:09:20 10° S 21:14:24 62° ESE 21:19:31 10° NNE
GPS 2-05 Rocket1 3.3 21:12:44 10° W 21:16:02 44° SSW 21:17:20 28° SE
Cosmos 2322 3.7 21:12:46 10° S 21:18:18 60° ESE 21:23:53 10° NNE
Delta 2 Rocket 3.2 21:16:13 10° W 21:20:05 87° S 21:22:33 25° E
Cosmos 2360 Rocket 2.1 21:16:52 10° SSW 21:22:30 82° ESE 21:28:09 10° NNE
SeaSat 1 2.3 21:18:33 10° NNE 21:23:28 71° ESE 21:28:23 10° SSW
Cosmos 1331 Rocket 3.9 21:20:21 10° S 21:25:29 71° ESE 21:30:42 10° NNE
OPS 6432 4.4 21:22:40 10° SSW 21:26:40 66° ESE 21:29:52 10° NE
Meteor 1-23 Rocket 4.1 21:21:42 10° N 21:27:16 70° E 21:31:39 17° SSE
Okean 2 4.0 21:24:57 10° NNE 21:28:44 36° E 21:29:21 34° E
Cosmos 482 Debris 4.1 21:23:44 10° SW 21:28:58 90° NNE 21:31:10 18° NE
Cosmos 1850 Rocket 4.5 21:25:06 10° NNW 21:30:20 61° WSW 21:35:25 10° S
COSMOS 2428 3.1 21:26:07 10° S 21:31:25 40° ESE 21:36:44 10° NE
Cosmos 1975 4.5 21:33:35 19° ENE 21:33:35 19° ENE 21:35:23 10° NE
Meteosat 1 Rocket2 4.2 21:32:18 10° WSW 21:36:49 41° S 21:38:59 31° SE
Cosmos 220 Rocket 3.9 21:35:47 10° NNW 21:40:07 85° WSW 21:42:04 32° SSE
Meteor 1-5 Rocket 4.5 21:38:53 10° SSW 21:44:09 63° W 21:49:25 10° N
Cosmos 2333 Rocket 3.9 21:47:12 16° ENE 21:47:12 16° ENE 21:48:47 10° NE
Cosmos 883 Rocket 4.5 21:40:13 10° N 21:46:22 84° W 21:51:30 16° S
USA 186 4.1 21:46:14 10° SSW 21:48:59 24° W 21:51:46 10° NW
Cosmos 1025 Rocket 2.8 21:45:16 10° N 21:49:33 80° E 21:50:37 50° SSE
Cosmos 2333 4.2 21:44:20 10° S 21:49:49 54° ESE 21:55:18 10° NNE
Cosmos 1607 4.2 21:44:17 10° NW 21:50:44 70° WSW 21:54:25 27° SSE
Okean 1 Rocket 4.1 21:47:22 10° SSW 21:51:32 46° W 21:55:46 10° N
Cosmos 1939 Rocket 3.4 21:51:36 29° SSW 21:53:24 55° W 21:57:15 10° NNW
Cosmos 1244 Rocket 4.3 21:53:51 22° S 21:58:00 73° E 22:04:07 10° N
USA 238 DEB 3.9 21:51:31 10° NNW 21:58:34 62° NE 22:01:04 40° ESE
USA 238 3.9 21:51:37 10° NNW 21:58:40 61° NE 22:01:09 40° ESE
Tiangong 1 2.8 21:56:30 10° WNW 21:58:00 25° W 21:58:00 25° W
Helios 1A 3.0 22:01:07 59° S 22:01:53 80° WSW 22:06:09 10° NNW
Cosmos 1818 3.5 22:01:10 10° SSW 22:06:34 88° WNW 22:12:03 10° NNE
ERS-1 Rocket 2.9 22:06:57 60° E 22:07:20 63° ENE 22:12:18 10° N
ATLAS 3B R/B 2.5 22:01:23 10° NNW 22:08:05 81° ENE 22:09:58 50° SE
OAO 1 Rocket 4.3 22:03:19 10° W 22:08:41 84° S 22:09:25 67° ESE
SL-8 R/B 4.1 22:04:09 10° NW 22:08:49 49° NNE 22:09:13 48° NE
Cosmos 1238 Rocket 3.9 22:02:22 10° N 22:08:56 63° E 22:10:05 53° SE
YAOGAN 6 3.5 22:10:08 42° WSW 22:10:17 43° W 22:13:39 10° NNW
SL-08 R/B 4.5 22:10:49 51° SE 22:12:01 60° E 22:18:13 10° NNE
ARGOS 3.4 22:12:31 50° ENE 22:12:32 50° ENE 22:17:43 10° N
USA 267 4.3 22:10:53 22° S 22:14:18 36° SW 22:20:16 10° WNW
Cosmos 1066 Rocket 4.1 22:10:01 10° N 22:15:26 61° E 22:15:33 61° E
Okean 1-7 Rocket 4.3 22:11:27 10° NNW 22:15:51 53° W 22:16:59 41° SW
Resurs 01 Rocket 4.4 22:15:22 10° SW 22:17:42 14° W 22:20:03 10° WNW
SPOT 5 3.6 22:31:51 42° NNE 22:31:51 42° NNE 22:35:08 10° N
Cosmos 2263 Rocket 4.2 22:26:16 10° NW 22:30:36 23° W 22:34:06 13° SW
Aureole 3 Rocket 3.8 22:23:14 10° N 22:30:55 88° E 22:31:40 71° SSE
NOSS 3-2 (C) 4.4 22:28:10 10° NNW 22:35:30 48° NE 22:36:46 45° ENE
Cosmos 1844 Rocket 2.7 22:31:29 10° NNW 22:36:49 73° NNE 22:36:49 73° NNE
MetOp-B 4.1 22:37:45 78° W 22:37:45 78° W 22:43:04 10° NNW
Cosmos 2278 Rocket 3.5 22:34:18 10° N 22:38:10 28° NE 22:38:10 28° NE
Atlas Centaur 2 4.0 22:38:28 10° W 22:44:57 27° SSW 22:45:00 27° SSW
H-2A R/B 2.8 22:46:54 45° N 22:46:54 45° N 22:50:24 10° N
Cosmos 2219 Rocket 2.3 22:50:02 70° NW 22:50:02 70° NW 22:55:31 10° NNE
Cosmos 1745 Rocket 3.9 22:50:53 80° W 22:50:55 80° W 22:57:05 10° N
CENTAUR R/B 4.2 22:48:36 10° NNW 22:55:19 29° NE 22:56:35 28° ENE
NOSS 3-4 (A) 3.7 22:53:19 10° SW 22:59:32 66° WNW 23:05:56 10° NNE
NOSS 3-4 (C) 3.7 22:57:10 38° SW 22:59:38 67° WNW 23:06:02 10° NNE
Terra 3.8 23:04:46 22° NNE 23:04:46 22° NNE 23:06:34 10° N
Cosmos 2333 Rocket 3.4 23:29:06 39° NW 23:29:06 39° NW 23:33:39 10° N
Cosmos 2237 Rocket 3.8 23:42:11 29° N 23:42:11 29° N 23:45:08 10° N
